Weather observations for the past three days for
Hilton Head Island, Hilton Head Airport
Imperial (Metric)
Date Time (edt) Wind (mph) Vis. (mi.) Weather Sky Cond. Temperature (ºF) Relative Humidity Wind Chill (°F) Heat Index (°F) Pressure Precipitation (in)
Air Dwpt 6 hour altimeter (in) sea level (mb) 1 hr 3 hr 6 hr
Max. Min.
16 05:55 SW 7 10.00 Fair CLR 78.8 73.4 84% 82 30.03 0.0
16 05:35 Vrbl 7 10.00 Fair CLR 78.8 73.4 84% 82 30.03 0.0
16 05:15 SW 7 10.00 Fair CLR 78.8 73.4 84% 82 30.02 0.0
16 04:55 SW 6 10.00 Fair CLR 78.8 73.4 84% 82 30.01 0.0
16 04:35 SW 7 10.00 Fair CLR 78.8 73.4 84% 82 30 0.0
16 04:15 SW 9 10.00 Fair CLR 78.8 73.4 84% 82 30 0.0
16 03:55 SW 5 G 13 10.00 Fair CLR 78.8 73.4 84% 82 29.99 0.0
16 03:35 SW 8 10.00 Fair CLR 78.8 73.4 84% 82 29.99 0.0
16 03:15 SW 6 10.00 Fair CLR 78.8 73.4 84% 82 30 0.0
16 02:55 Vrbl 7 G 14 10.00 Fair CLR 78.8 73.4 84% 82 30 0.0
16 02:35 SW 7 10.00 Fair CLR 78.8 73.4 84% 82 30 0.0
16 02:15 Vrbl 6 10.00 Fair CLR 78.8 73.4 84% 82 30 0.0
16 01:55 SW 7 10.00 Fair CLR 78.8 73.4 84% 82 30.01 0.0
16 01:35 SW 7 10.00 Fair CLR 78.8 73.4 84% 82 30.02 0.0
16 01:15 SW 8 10.00 Fair CLR 78.8 73.4 84% 82 30.03 0.0
16 00:55 Vrbl 6 10.00 Fair CLR 80.6 73.4 79% 85 30.03 0.0
16 00:35 SW 8 G 14 10.00 Fair CLR 80.6 73.4 79% 85 30.03 0.0
16 00:15 SW 9 10.00 Fair CLR 80.6 73.4 79% 85 30.03 0.0
15 23:55 SW 6 10.00 Fair CLR 80.6 73.4 79% 85 30.03 0.0
15 23:35 W 7 10.00 Fair CLR 80.6 73.4 79% 85 30.03 0.0
15 23:15 SW 7 10.00 Fair CLR 82.4 75.2 79% 89 30.03 0.0
15 22:55 SW 5 10.00 Fair CLR 82.4 75.2 79% 89 30.04 0.0
15 22:35 SW 6 10.00 Fair CLR 82.4 75.2 79% 89 30.03 0.0
15 22:15 W 6 10.00 Fair CLR 82.4 73.4 74% 88 30.03 0.0
15 21:55 Vrbl 6 G 12 10.00 Fair CLR 84.2 73.4 70% 91 30.03 0.0
15 21:35 SW 9 10.00 Fair CLR 84.2 73.4 70% 91 30.01 0.0
15 21:15 S 9 10.00 Fair CLR 84.2 73.4 70% 91 30.01 0.0
15 20:55 SW 5 10.00 Fair CLR 84.2 75.2 74% 92 30.01 0.0
15 20:50 Calm 10.00 Fair CLR 84.2 75.2 74% 92 30.01 0.0
15 19:50 S 3 G 14 10.00 Fair CLR 84.2 73.4 70% 91 30.01 0.0
15 17:50 N 12 9.00 Partly Cloudy SCT027 84.2 71.6 66% 90 30 0.0
15 17:20 W 5 10.00 Fair CLR 84.2 71.6 66% 90 30.01 0.0
15 16:50 SW 16 G 25 10.00 Mostly Cloudy BKN018 87.8 78.8 75% 102 30.01 0.0
15 15:50 S 12 G 22 10.00 Fair CLR 89.6 78.8 71% 105 29.98 0.0
15 14:50 S 13 G 21 10.00 Fair CLR 89.6 80.6 75% 108 30.02 0.0
15 13:50 S 10 G 21 10.00 Fair CLR 89.6 80.6 75% 108 30.05 0.0
15 12:50 S 7 G 16 10.00 Fair CLR 89.6 80.6 75% 108 30.07 0.0
15 11:50 S 5 10.00 Fair CLR 89.6 78.8 71% 105 30.07 0.0
15 10:50 S 8 10.00 Fair CLR 87.8 78.8 75% 102 30.09 0.0
15 09:50 Calm 10.00 Fair CLR 87.8 75.2 66% 98 30.09 0.0
15 08:50 Calm 10.00 Fair CLR 84.2 75.2 74% 92 30.09 0.0
15 07:50 W 6 10.00 Fair CLR 82.4 75.2 79% 89 30.07 0.0
15 06:50 W 7 10.00 Fair CLR 80.6 75.2 84% 86 30.05 0.0
15 06:15 SW 5 10.00 Fair CLR 80.6 75.2 84% 86 30.05 0.0
15 05:55 Calm 10.00 Fair CLR 80.6 75.2 84% 86 30.04 0.0
15 05:35 SW 6 10.00 Fair CLR 80.6 75.2 84% 86 30.04 0.0
15 05:15 SW 5 10.00 Fair CLR 80.6 75.2 84% 86 30.04 0.0
15 04:55 SW 5 10.00 Fair CLR 80.6 75.2 84% 86 30.03 0.0
15 04:35 SW 6 10.00 Fair CLR 80.6 75.2 84% 86 30.04 0.0
15 04:15 SW 6 10.00 Fair CLR 80.6 75.2 84% 86 30.03 0.0
15 03:55 Vrbl 5 10.00 Fair CLR 80.6 75.2 84% 86 30.04 0.0
15 03:35 SW 7 10.00 Fair CLR 82.4 75.2 79% 89 30.04 0.0
15 03:15 SW 8 10.00 Fair CLR 82.4 75.2 79% 89 30.04 0.0
15 02:55 SW 9 10.00 Fair CLR 82.4 75.2 79% 89 30.04 0.0
15 02:35 SW 7 10.00 Fair CLR 82.4 75.2 79% 89 30.05 0.0
15 02:15 SW 10 10.00 Fair CLR 84.2 75.2 74% 92 30.06 0.0
15 01:55 SW 7 G 14 10.00 Fair CLR 84.2 75.2 74% 92 30.08 0.0
15 01:35 SW 9 G 16 10.00 Fair CLR 84.2 77 79% 94 30.08 0.0
15 01:15 SW 8 G 16 10.00 Fair CLR 84.2 77 79% 94 30.09 0.0
15 00:55 SW 9 G 15 10.00 Fair CLR 84.2 78.8 84% 96 30.09 0.0
15 00:35 SW 13 G 18 10.00 Fair CLR 86 78.8 79% 99 30.09 0.0
15 00:15 SW 13 G 22 10.00 Fair CLR 86 78.8 79% 99 30.09 0.0
14 23:55 SW 17 10.00 Partly Cloudy FEW018 SCT120 86 78.8 79% 99 30.09 0.0
14 23:35 S 15 10.00 Mostly Cloudy BKN120 86 78.8 79% 99 30.09 0.0
14 23:15 S 9 G 17 10.00 Mostly Cloudy BKN120 86 78.8 79% 99 30.09 0.0
14 22:55 S 12 G 20 10.00 Fair CLR 86 77 75% 97 30.09 0.0
14 22:35 S 10 10.00 Fair CLR 86 77 75% 97 30.09 0.0
14 22:15 S 9 G 15 10.00 Fair CLR 86 77 75% 97 30.09 0.0
14 21:55 S 8 G 14 10.00 Fair CLR 86 77 75% 97 30.08 0.0
14 21:35 Vrbl 7 G 13 10.00 Fair CLR 86 77 75% 97 30.08 0.0
14 21:15 Vrbl 6 G 14 10.00 Fair CLR 86 78.8 79% 99 30.07 0.0
14 20:55 S 6 10.00 Fair CLR 86 78.8 79% 99 30.07 0.0
14 20:50 S 7 G 13 10.00 Fair CLR 86 78.8 79% 99 30.07 0.0
14 19:50 S 8 G 15 10.00 Fair CLR 87.8 77 70% 100 30.06 0.0
14 18:50 S 9 10.00 Fair CLR 87.8 78.8 75% 102 30.06 0.0
14 17:50 S 9 G 16 10.00 Fair CLR 87.8 78.8 75% 102 30.05 0.0
14 16:50 S 13 10.00 Fair CLR 89.6 80.6 75% 108 30.07 0.0
14 15:50 S 9 G 16 10.00 Fair CLR 89.6 80.6 75% 108 30.08 0.0
14 14:50 Vrbl 52 G 13 10.00 Fair and Windy CLR 91.4 78.8 67% 108 30.1 0.0
14 13:50 Vrbl 5 10.00 Fair CLR 89.6 78.8 71% 105 30.12 0.0
14 12:50 Calm 10.00 Fair CLR 89.6 77 67% 103 30.14 0.0
14 11:50 Calm 10.00 Fair CLR 91.4 75.2 59% 103 30.15 0.0
14 10:50 Calm 10.00 Fair CLR 89.6 75.2 63% 100 30.15 0.0
14 09:50 Calm 10.00 Fair CLR 87.8 75.2 66% 98 30.15 0.0
14 08:50 Calm 10.00 Fair CLR 86 77 75% 97 30.15 0.0
14 07:50 Calm 10.00 Fair CLR 84.2 78.8 84% 96 30.14 0.0
14 06:50 Calm 10.00 Fair CLR 80.6 78.8 94% 88 30.13 0.0
14 06:15 Calm 10.00 Fair CLR 80.6 78.8 94% 88 30.12 0.0
14 05:55 Calm 9.00 Fair CLR 80.6 78.8 94% 88 30.12 0.0
14 05:35 Calm 9.00 Fair CLR 80.6 78.8 94% 88 30.12 0.0
14 05:15 Calm 10.00 Fair CLR 80.6 78.8 94% 88 30.12 0.0
14 04:55 Calm 10.00 Fair CLR 80.6 78.8 94% 88 30.12 0.0
14 04:35 Calm 10.00 Fair CLR 80.6 78.8 94% 88 30.11 0.0
14 04:15 Calm 10.00 Fair CLR 80.6 78.8 94% 88 30.11 0.0
14 03:55 Calm 10.00 Fair CLR 80.6 78.8 94% 88 30.11 0.0
14 03:35 Calm 10.00 Fair CLR 80.6 78.8 94% 88 30.12 0.0
14 03:15 Calm 9.00 Fair CLR 80.6 78.8 94% 88 30.12 0.0
14 02:55 Calm 10.00 Fair CLR 82.4 78.8 89% 92 30.13 0.0
14 02:35 Calm 10.00 Fair CLR 82.4 78.8 89% 92 30.13 0.0
14 02:15 Calm 10.00 Fair CLR 80.6 78.8 94% 88 30.13 0.0
14 01:55 Calm 10.00 Fair CLR 80.6 78.8 94% 88 30.14 0.0
14 01:35 Calm 10.00 Fair CLR 80.6 78.8 94% 88 30.14 0.0
14 01:15 Calm 10.00 Fair CLR 82.4 78.8 89% 92 30.14 0.0
14 00:55 S 5 10.00 A Few Clouds FEW110 82.4 78.8 89% 92 30.15 0.0
14 00:35 Vrbl 7 10.00 Mostly Cloudy FEW018 BKN110 84.2 78.8 84% 96 30.16 0.0
14 00:15 S 6 G 12 10.00 Overcast OVC110 82.4 80.6 94% 94 30.16 0.0
13 23:55 S 5 10.00 Overcast SCT017 OVC110 82.4 80.6 94% 94 30.16 0.0
13 23:35 Calm 10.00 Overcast SCT017 OVC110 82.4 78.8 89% 92 30.16 0.0
13 23:15 S 5 10.00 Partly Cloudy SCT110 80.6 78.8 94% 88 30.16 0.0
13 22:55 S 5 8.00 Fair CLR 78.8 78.8 100% 83 30.16 0.0
13 22:35 Calm 7.00 A Few Clouds FEW120 78.8 78.8 100% 83 30.16 0.0
13 22:15 Calm 10.00 Mostly Cloudy BKN120 78.8 78.8 100% 83 30.16 0.0
13 21:55 Calm 9.00 Overcast OVC120 80.6 78.8 94% 88 30.16 0.0
13 21:35 Calm 4.00 Fog/Mist OVC110 80.6 78.8 94% 88 30.16 0.0
13 21:15 Calm 8.00 Overcast OVC110 80.6 80.6 100% 89 30.16 0.0
13 20:55 Calm 8.00 Overcast OVC110 80.6 78.8 94% 88 30.15 0.0
13 20:50 Calm 10.00 Mostly Cloudy BKN110 80.6 78.8 94% 88 30.15 0.0
13 19:50 Calm 10.00 Mostly Cloudy BKN120 80.6 78.8 94% 88 30.15 0.0
13 18:50 Calm 10.00 A Few Clouds FEW110 80.6 78.8 94% 88 30.13 0.0
13 17:50 Calm 7.00 Light Rain CLR 78.8 77 94% 83 30.14 0.0
13 16:50 NE 14 G 23 10.00 Thunderstorm in Vicinity SCT021 BKN021 BKN030 82.4 75.2 79% 89 30.17 0.0
13 15:50 S 7 10.00 Thunderstorm in Vicinity FEW017 87.8 80.6 79% 105 30.15 0.0
13 14:50 Vrbl 6 10.00 Thunderstorm in Vicinity FEW017 87.8 80.6 79% 105 30.14 0.0
13 13:50 Vrbl 6 10.00 Thunderstorm in Vicinity FEW026 87.8 80.6 79% 105 30.17 0.0
13 12:50 SE 5 10.00 A Few Clouds FEW026 86 78.8 79% 99 30.18 0.0
13 11:50 Calm 10.00 A Few Clouds FEW100 87.8 78.8 75% 102 30.19 0.0
13 10:50 Calm 10.00 A Few Clouds FEW019 86 80.6 84% 102 30.19 0.0
13 09:50 Calm 10.00 A Few Clouds FEW018 87.8 78.8 75% 102 30.17 0.0
13 08:50 Calm 10.00 Fair CLR 82.4 80.6 94% 94 30.17 0.0
13 07:50 Calm 10.00 Fair CLR 78.8 78.8 100% 83 30.15 0.0
13 06:50 Calm 10.00 Fair CLR 78.8 77 94% 83 30.03 0.0
13 06:15 Calm 9.00 Mostly Cloudy BKN080 78.8 77 94% 83 30.12 0.0
Date Time (edt) Wind (mph) Vis. (mi.) Weather Sky Cond. Air Dwpt Max. Min. Relative Humidity Wind Chill (°F) Heat Index (°F) altimeter (in) sea level (mb) 1 hr 3 hr 6 hr
6 hour
Temperature (ºF) Pressure Precipitation (in)